NOAA Logo National Centers for Environmental Information

formerly the National Oceanographic Data Center (NODC)...  more on NCEI

NOAA Satellite and Information Service

CRUISE INFORMATION RECORD AND DATA
 
NODC Cruise 29-1279 Information
WOD CRUISE REFERENCE #29001279
DATA:
in WOD format 29001279_XBT.dat
29001279_CTD.dat
in 'csv' format 29001279_XBT.csv
29001279_CTD.csv
METADATA:
COUNTRYSPAIN (29)
NODC ACCESSION NUMBER (XBT)46076
SHIP NAMEJOSE RIOJA (R/V; call sign EA-7823; built 1984)
INSTITUTEINSTITUTO DE CIENCIAS DEL MAR (CSIC) BARCELONA
PROJECTSPANISH SYSTEM OF OPERATIONAL OCEANOGRAPHY (ESEOO)
ORIGINATORS CRUISE CODE (XBT)ESEOO 0506
PRIMARY INVESTIGATORS 
All ParametersMACHIN; FRANCISCO
DATE OF FIRST CAST5/23/2006
DATE OF LAST CAST5/29/2006
TOTAL NUMBER OF CASTS133
Temperature [t] PROFILES133
Salinity [s] PROFILES116
Pressure [w] PROFILES116
UNIQUE CAST #LATITUDELONGITUDEDATETIMEPROBE TYPE
1154616343.617-5.6885/23/20067.318XBT
1154616243.667-5.6885/23/20067.504XBT
1154616143.717-5.6885/23/20067.701XBT
1154616743.767-5.6885/23/20068.063XBT
1154616643.817-5.6885/23/20068.234XBT
1154616543.867-5.6885/23/20068.408XBT
1154616443.900-5.6885/23/20068.552XBT
1154616943.917-5.6885/23/20068.665XBT
1154616843.967-5.6885/23/20068.827XBT
1154617044.017-5.6885/23/20069.006XBT
1154617344.017-5.9255/23/20069.583XBT
1154617243.967-5.9255/23/20069.759XBT
1154617143.917-5.9255/23/20069.858XBT
1154617743.867-5.9255/23/200610.055XBT
1154617643.817-5.9255/23/200610.221XBT
1154617543.767-5.9255/23/200610.368XBT
1154617443.717-5.9255/23/200610.516XBT
1154604743.767-5.5005/24/20069.336CTD
1154604843.767-5.5005/24/20069.336CTD
1154604543.569-5.5045/24/20069.676CTD
1154604643.569-5.5045/24/20069.676CTD
1154604943.834-5.4995/24/20069.922CTD
1154605043.834-5.4995/24/20069.922CTD
1154605143.634-5.5005/24/200610.203CTD
1154605243.634-5.5005/24/200610.203CTD
1154605543.902-5.5005/24/200610.523CTD
1154605643.902-5.5005/24/200610.523CTD
1154605343.701-5.5005/24/200610.763CTD
1154605443.701-5.5005/24/200610.763CTD
1154605743.966-5.4975/24/200611.444CTD
1154605843.966-5.4975/24/200611.444CTD
1154605944.034-5.5005/24/200612.404CTD
1154606044.034-5.5005/24/200612.404CTD
1154606144.033-5.6685/24/200613.921CTD
1154606244.033-5.6685/24/200613.921CTD
1154606343.965-5.6675/24/200615.039CTD
1154606443.965-5.6675/24/200615.039CTD
1154606543.899-5.6675/24/200615.786CTD
1154606643.899-5.6675/24/200615.786CTD
1154606743.833-5.6675/24/200616.404CTD
1154606843.833-5.6675/24/200616.404CTD
1154606943.766-5.6675/24/200616.986CTD
1154607043.766-5.6675/24/200616.986CTD
1154607143.700-5.6675/24/200617.522CTD
1154607243.700-5.6675/24/200617.522CTD
1154607343.633-5.6675/24/200618.059CTD
1154607443.633-5.6675/24/200618.059CTD
1154607543.566-5.6695/24/200618.567CTD
1154607643.566-5.6695/24/200618.567CTD
1154607743.701-5.8325/25/20067.555CTD
1154607843.701-5.8325/25/20067.555CTD
1154607943.767-5.8335/25/20068.090CTD
1154608043.767-5.8335/25/20068.090CTD
1154608143.834-5.8325/25/20068.705CTD
1154608243.834-5.8325/25/20068.705CTD
1154608343.900-5.8325/25/20069.400CTD
1154608443.900-5.8325/25/20069.400CTD
1154608543.967-5.8325/25/200610.215CTD
1154608643.967-5.8325/25/200610.215CTD
1154608744.034-5.8345/25/200611.557CTD
1154608844.034-5.8345/25/200611.557CTD
1154608944.033-6.0005/25/200613.190CTD
1154609044.033-6.0005/25/200613.190CTD
1154609143.966-6.0005/25/200614.322CTD
1154609243.966-6.0005/25/200614.322CTD
1154609343.899-5.9995/25/200615.485CTD
1154609443.899-5.9995/25/200615.485CTD
1154609543.833-6.0005/25/200616.305CTD
1154609643.833-6.0005/25/200616.305CTD
1154609743.766-6.0005/25/200616.886CTD
1154609843.766-6.0005/25/200616.886CTD
1154609943.699-6.0015/25/200617.450CTD
1154610043.699-6.0015/25/200617.450CTD
1154610143.633-5.9995/25/200617.955CTD
1154610243.633-5.9995/25/200617.955CTD
1154610343.568-5.5005/28/20067.162CTD
1154610443.568-5.5005/28/20067.162CTD
1154610543.634-5.5025/28/20067.663CTD
1154610643.634-5.5025/28/20067.663CTD
1154610743.700-5.5015/28/20068.188CTD
1154610843.700-5.5015/28/20068.188CTD
1154610943.767-5.5015/28/20068.726CTD
1154611043.767-5.5015/28/20068.726CTD
1154611143.834-5.5025/28/20069.297CTD
1154611243.834-5.5025/28/20069.297CTD
1154611343.901-5.5015/28/20069.848CTD
1154611443.901-5.5015/28/20069.848CTD
1154611543.967-5.5015/28/200610.521CTD
1154611643.967-5.5015/28/200610.521CTD
1154611744.034-5.5005/28/200611.438CTD
1154611844.034-5.5005/28/200611.438CTD
1154611944.033-5.6695/28/200612.947CTD
1154612044.033-5.6695/28/200612.947CTD
1154612143.966-5.6685/28/200613.998CTD
1154612243.966-5.6685/28/200613.998CTD
1154612343.900-5.6685/28/200614.752CTD
1154612443.900-5.6685/28/200614.752CTD
1154612543.833-5.6685/28/200615.397CTD
1154612643.833-5.6685/28/200615.397CTD
1154612743.766-5.6685/28/200615.995CTD
1154612843.766-5.6685/28/200615.995CTD
1154612943.699-5.6685/28/200616.571CTD
1154613043.699-5.6685/28/200616.571CTD
1154613143.632-5.6685/28/200617.121CTD
1154613243.632-5.6685/28/200617.121CTD
1154613343.566-5.6675/28/200617.657CTD
1154613443.566-5.6675/28/200617.657CTD
1154613543.701-5.8355/29/20067.471CTD
1154613643.701-5.8355/29/20067.471CTD
1154613743.767-5.8345/29/20068.006CTD
1154613843.767-5.8345/29/20068.006CTD
1154613943.834-5.8345/29/20068.556CTD
1154614043.834-5.8345/29/20068.556CTD
1154614143.901-5.8345/29/20069.091CTD
1154614243.901-5.8345/29/20069.091CTD
1154614343.968-5.8345/29/20069.738CTD
1154614443.968-5.8345/29/20069.738CTD
1154614544.034-5.8345/29/200610.814CTD
1154614644.034-5.8345/29/200610.814CTD
1154614744.033-6.0015/29/200612.321CTD
1154614844.033-6.0015/29/200612.321CTD
1154614943.965-6.0005/29/200613.458CTD
1154615043.965-6.0005/29/200613.458CTD
1154615143.898-6.0005/29/200614.538CTD
1154615243.898-6.0005/29/200614.538CTD
1154615343.832-6.0015/29/200615.288CTD
1154615443.832-6.0015/29/200615.288CTD
1154615543.766-6.0015/29/200615.821CTD
1154615643.766-6.0015/29/200615.821CTD
1154615743.699-6.0015/29/200616.322CTD
1154615843.699-6.0015/29/200616.322CTD
1154615943.632-6.0015/29/200616.824CTD
1154616043.632-6.0015/29/200616.824CTD


  Last modified:    Thu, 10-Dec-2009 21:04 UTC NCEI.info@noaa.gov
 
Dept. of Commerce - NOAA - NESDIS - NCEI
* Offsite Link Notification
USA.gov - The U.S. Government's Web Portal